User: anonymous   Login
Location: Auttagershofen
(48.1940°N, 10.0237°E)
Time: 04:22:37
(UTC+00:00)
Language:

Meteor 2-13 Rocket - Orbit

View from above orbital plane
View from above orbital plane
View from above satellite
View from above satellite

Ground track
Ground track

The orbit is defined by the following mean orbital elements,

1 16409U          26069.83561354 +.00000000 +00000-0 +15994-4 0 00003
2 16409  82.5414 340.6819 0016173  71.4547 288.8369 13.84923461    08
Epoch (UTC): 10 March 2026 20:03:17
Eccentricity: 0.0016173
inclination: 82.5414°
perigee height: 935 km
apogee height: 958 km
right ascension of ascending node: 340.6819°
argument of perigee: 71.4547°
revolutions per day: 13.84923461
mean anomaly at epoch: 288.8369°

The dashed part of the orbit path shows where the satellite is in the earth's shadow,  

DLR